QPF
0.00 0.00 0.00 0.00 0.00 0.00 0.01 0.01 0.01 0.02 0.03 0.02 0.02 0.03 0.05 0.06 0.05 0.03 0.02 0.03 0.04 0.04 0.05 0.05 0.06 0.05 0.06 0.09 0.08 0.09 0.10 0.09 0.07 0.08 0.06 0.05 0.03 0.03 0.04 0.04 0.04 0.03 0.03
0.00 0.00 0.00 0.00 0.00 0.00 0.01 0.01 0.01 0.01 0.02 0.03 0.02 0.02 0.04 0.05 0.06 0.04 0.04 0.03 0.05 0.07 0.05 0.06 0.07 0.06 0.08 0.09 0.08 0.09 0.09 0.07 0.07 0.08 0.08 0.07 0.05 0.03 0.02 0.03 0.02 0.02 0.03
0.00 0.00 0.00 0.00 0.00 0.01 0.01 0.01 0.01 0.01 0.01 0.01 0.02 0.02 0.03 0.03 0.03 0.04 0.05 0.05 0.07 0.09 0.08 0.06 0.06 0.07 0.08 0.09 0.09 0.10 0.11 0.11 0.10 0.11 0.12 0.11 0.10 0.07 0.04 0.03 0.02 0.02 0.03
0.00 0.00 0.00 0.00 0.00 0.01 0.00 0.01 0.01 0.01 0.01 0.01 0.02 0.02 0.03 0.03 0.03 0.02 0.04 0.05 0.06 0.07 0.08 0.07 0.07 0.07 0.07 0.10 0.08 0.07 0.10 0.12 0.12 0.10 0.10 0.10 0.09 0.10 0.08 0.06 0.04 0.04 0.04
0.00 0.00 0.00 0.00 0.00 0.00 0.00 0.00 0.01 0.01 0.01 0.01 0.01 0.02 0.02 0.02 0.02 0.02 0.03 0.04 0.04 0.04 0.04 0.05 0.07 0.08 0.08 0.08 0.07 0.07 0.08 0.09 0.09 0.09 0.09 0.09 0.09 0.08 0.08 0.08 0.07 0.07 0.06
0.00 0.00 0.00 0.00 0.00 0.00 0.00 0.00 0.01 0.02 0.01 0.01 0.01 0.01 0.02 0.02 0.02 0.03 0.03 0.04 0.04 0.03 0.03 0.05 0.07 0.09 0.10 0.10 0.09 0.07 0.07 0.08 0.08 0.09 0.09 0.08 0.09 0.08 0.08 0.08 0.09 0.10 0.10
0.00 0.00 0.00 0.00 0.00 0.00 0.00 0.00 0.01 0.01 0.00 0.00 0.01 0.01 0.02 0.02 0.02 0.02 0.02 0.03 0.02 0.02 0.03 0.04 0.06 0.06 0.07 0.08 0.08 0.07 0.06 0.07 0.08 0.09 0.10 0.09 0.08 0.08 0.08 0.09 0.11 0.12 0.14
0.00 0.00 0.00 0.00 0.00 0.00 0.01 0.01 0.01 0.01 0.01 0.01 0.01 0.01 0.02 0.02 0.01 0.01 0.01 0.02 0.02 0.02 0.03 0.04 0.04 0.05 0.05 0.04 0.06 0.05 0.06 0.07 0.07 0.07 0.08 0.07 0.05 0.05 0.06 0.07 0.10 0.11 0.13
0.00 0.00 0.01 0.01 0.01 0.01 0.01 0.01 0.01 0.01 0.01 0.01 0.01 0.02 0.02 0.02 0.02 0.01 0.01 0.02 0.02 0.02 0.02 0.03 0.03 0.04 0.05 0.04 0.04 0.04 0.04 0.05 0.06 0.06 0.07 0.07 0.06 0.05 0.05 0.06 0.08 0.08 0.07
0.00 0.01 0.01 0.01 0.01 0.01 0.01 0.01 0.00 0.01 0.01 0.01 0.01 0.02 0.02 0.03 0.02 0.01 0.01 0.01 0.02 0.02 0.02 0.03 0.03 0.04 0.04 0.03 0.03 0.04 0.04 0.05 0.04 0.05 0.05 0.05 0.06 0.07 0.07 0.07 0.06 0.06 0.07
0.01 0.01 0.01 0.01 0.01 0.01 0.01 0.00 0.00 0.01 0.01 0.01 0.02 0.02 0.01 0.01 0.01 0.01 0.01 0.02 0.03 0.02 0.03 0.03 0.03 0.04 0.04 0.03 0.04 0.04 0.05 0.05 0.05 0.04 0.03 0.04 0.05 0.06 0.08 0.08 0.08 0.09 0.10
0.01 0.01 0.01 0.01 0.01 0.01 0.00 0.00 0.00 0.01 0.01 0.01 0.01 0.01 0.01 0.02 0.02 0.02 0.02 0.03 0.03 0.03 0.03 0.04 0.03 0.03 0.03 0.03 0.03 0.03 0.04 0.05 0.06 0.05 0.04 0.04 0.05 0.06 0.05 0.06 0.07 0.08 0.08
0.00 0.00 0.01 0.01 0.01 0.01 0.01 0.01 0.01 0.01 0.01 0.01 0.01 0.01 0.01 0.02 0.02 0.02 0.02 0.02 0.03 0.03 0.03 0.02 0.02 0.02 0.02 0.02 0.02 0.02 0.02 0.03 0.03 0.03 0.03 0.03 0.04 0.04 0.04 0.04 0.06 0.07 0.07
0.00 0.00 0.00 0.00 0.01 0.01 0.01 0.01 0.01 0.01 0.01 0.02 0.02 0.02 0.03 0.04 0.04 0.03 0.04 0.04 0.03 0.02 0.02 0.02 0.03 0.02 0.02 0.01 0.01 0.01 0.01 0.01 0.01 0.01 0.02 0.02 0.03 0.04 0.03 0.03 0.04 0.04 0.05
0.00 0.00 0.00 0.00 0.00 0.01 0.01 0.01 0.01 0.01 0.01 0.02 0.02 0.02 0.03 0.05 0.06 0.05 0.05 0.04 0.05 0.03 0.02 0.02 0.02 0.01 0.01 0.01 0.01 0.01 0.01 0.01 0.01 0.01 0.01 0.01 0.01 0.02 0.03 0.02 0.03 0.03 0.04
0.00 0.00 0.00 0.01 0.01 0.01 0.01 0.02 0.02 0.03 0.04 0.03 0.02 0.02 0.03 0.04 0.04 0.04 0.04 0.04 0.03 0.03 0.02 0.01 0.01 0.00 0.00 0.00 0.01 0.01 0.02 0.03 0.03 0.02 0.02 0.01 0.01 0.01 0.01 0.02 0.03 0.02 0.01
0.01 0.01 0.01 0.01 0.01 0.01 0.02 0.03 0.05 0.04 0.02 0.02 0.02 0.03 0.03 0.03 0.03 0.03 0.04 0.03 0.02 0.01 0.01 0.01 0.01 0.01 0.01 0.01 0.01 0.01 0.02 0.03 0.03 0.03 0.03 0.02 0.01 0.01 0.01 0.01 0.02 0.03 0.02
0.02 0.02 0.02 0.02 0.01 0.01 0.01 0.02 0.02 0.01 0.02 0.02 0.02 0.03 0.05 0.06 0.05 0.04 0.02 0.01 0.01 0.01 0.01 0.01 0.01 0.01 0.01 0.01 0.01 0.01 0.02 0.03 0.02 0.03 0.03 0.02 0.02 0.02 0.02 0.02 0.02 0.02 0.02
0.02 0.02 0.02 0.02 0.01 0.01 0.00 0.01 0.01 0.01 0.01 0.01 0.02 0.02 0.03 0.04 0.03 0.02 0.02 0.02 0.01 0.02 0.02 0.01 0.01 0.01 0.01 0.01 0.01 0.01 0.02 0.02 0.02 0.02 0.02 0.02 0.02 0.03 0.03 0.03 0.02 0.02 0.01
0.00 0.01 0.01 0.01 0.01 0.01 0.01 0.01 0.01 0.01 0.01 0.01 0.02 0.02 0.04 0.05 0.04 0.03 0.03 0.03 0.02 0.02 0.01 0.01 0.01 0.01 0.01 0.01 0.01 0.01 0.01 0.01 0.01 0.01 0.01 0.01 0.01 0.01 0.02 0.04 0.04 0.04 0.03
0.00 0.00 0.00 0.01 0.01 0.01 0.01 0.01 0.01 0.01 0.02 0.05 0.08 0.08 0.09 0.08 0.07 0.05 0.04 0.03 0.03 0.02 0.01 0.01 0.01 0.02 0.02 0.02 0.02 0.01 0.01 0.01 0.01 0.01 0.01 0.01 0.01 0.01 0.01 0.01 0.01 0.02 0.02
0.00 0.00 0.00 0.01 0.01 0.01 0.01 0.01 0.02 0.03 0.04 0.05 0.09 0.09 0.10 0.10 0.07 0.05 0.03 0.03 0.03 0.02 0.01 0.01 0.02 0.02 0.02 0.02 0.02 0.02 0.02 0.02 0.02 0.02 0.01 0.01 0.02 0.02 0.02 0.03 0.03 0.03 0.03
0.00 0.00 0.01 0.01 0.01 0.01 0.01 0.03 0.03 0.03 0.05 0.06 0.08 0.09 0.11 0.14 0.10 0.06 0.04 0.03 0.02 0.02 0.02 0.02 0.02 0.03 0.03 0.03 0.02 0.02 0.02 0.02 0.02 0.02 0.02 0.02 0.02 0.02 0.03 0.03 0.04 0.04 0.04
0.01 0.01 0.01 0.01 0.01 0.02 0.02 0.03 0.03 0.03 0.04 0.06 0.07 0.09 0.09 0.09 0.09 0.07 0.06 0.05 0.03 0.03 0.02 0.02 0.03 0.04 0.03 0.03 0.03 0.03 0.02 0.02 0.01 0.01 0.01 0.01 0.01 0.02 0.02 0.02 0.03 0.03 0.04
0.00 0.01 0.01 0.01 0.02 0.02 0.03 0.04 0.05 0.04 0.04 0.05 0.05 0.06 0.08 0.10 0.10 0.07 0.07 0.06 0.04 0.04 0.04 0.03 0.03 0.03 0.02 0.02 0.03 0.02 0.01 0.01 0.01 0.01 0.01 0.01 0.01 0.02 0.02 0.02 0.02 0.02 0.03
0.00 0.00 0.01 0.02 0.02 0.02 0.03 0.04 0.08 0.08 0.03 0.02 0.02 0.02 0.03 0.04 0.05 0.05 0.05 0.04 0.03 0.03 0.02 0.02 0.02 0.02 0.02 0.02 0.01 0.01 0.01 0.01 0.01 0.01 0.02 0.01 0.01 0.01 0.01 0.02 0.02 0.01 0.01
MSLP
1012.81 1012.91 1012.95 1012.95 1012.93 1012.93 1012.97 1013.08 1013.24 1013.46 1013.70 1013.95 1014.16 1014.34 1014.47 1014.54 1014.59 1014.61 1014.64 1014.68 1014.77 1014.89 1015.07 1015.28 1015.53 1015.80 1016.07 1016.33 1016.55 1016.71 1016.79 1016.79 1016.69 1016.50 1016.24 1015.93 1015.59 1015.24 1014.92 1014.62 1014.38 1014.17 1014.03
1012.69 1012.88 1013.00 1013.05 1013.05 1013.04 1013.05 1013.11 1013.23 1013.42 1013.65 1013.90 1014.14 1014.34 1014.49 1014.58 1014.62 1014.62 1014.61 1014.62 1014.67 1014.77 1014.93 1015.14 1015.39 1015.65 1015.92 1016.17 1016.37 1016.52 1016.59 1016.59 1016.51 1016.36 1016.16 1015.90 1015.62 1015.31 1014.99 1014.67 1014.36 1014.08 1013.83
1012.36 1012.67 1012.91 1013.05 1013.12 1013.14 1013.14 1013.17 1013.26 1013.41 1013.61 1013.85 1014.08 1014.29 1014.45 1014.53 1014.56 1014.54 1014.51 1014.49 1014.51 1014.59 1014.73 1014.93 1015.18 1015.45 1015.71 1015.95 1016.13 1016.26 1016.33 1016.33 1016.28 1016.18 1016.04 1015.85 1015.63 1015.37 1015.08 1014.76 1014.42 1014.08 1013.75
1011.81 1012.26 1012.63 1012.90 1013.07 1013.15 1013.19 1013.23 1013.30 1013.42 1013.60 1013.82 1014.04 1014.24 1014.38 1014.46 1014.47 1014.43 1014.38 1014.33 1014.33 1014.39 1014.53 1014.72 1014.97 1015.23 1015.47 1015.69 1015.86 1015.98 1016.04 1016.06 1016.04 1015.99 1015.90 1015.79 1015.64 1015.44 1015.19 1014.87 1014.52 1014.14 1013.76
1011.07 1011.65 1012.16 1012.57 1012.86 1013.05 1013.16 1013.23 1013.32 1013.44 1013.61 1013.81 1014.02 1014.20 1014.33 1014.40 1014.40 1014.35 1014.27 1014.21 1014.20 1014.25 1014.36 1014.55 1014.78 1015.02 1015.25 1015.45 1015.60 1015.71 1015.77 1015.80 1015.81 1015.80 1015.78 1015.73 1015.65 1015.50 1015.28 1014.99 1014.63 1014.23 1013.82
1010.23 1010.90 1011.53 1012.08 1012.50 1012.80 1013.00 1013.15 1013.28 1013.43 1013.60 1013.80 1014.00 1014.18 1014.31 1014.36 1014.36 1014.30 1014.22 1014.15 1014.12 1014.16 1014.26 1014.43 1014.63 1014.85 1015.06 1015.23 1015.37 1015.46 1015.53 1015.57 1015.61 1015.65 1015.68 1015.69 1015.65 1015.55 1015.37 1015.09 1014.74 1014.33 1013.90
1009.38 1010.10 1010.82 1011.46 1012.00 1012.41 1012.72 1012.95 1013.15 1013.34 1013.54 1013.75 1013.96 1014.14 1014.27 1014.33 1014.33 1014.27 1014.19 1014.12 1014.09 1014.11 1014.20 1014.35 1014.52 1014.71 1014.89 1015.04 1015.16 1015.25 1015.32 1015.38 1015.45 1015.53 1015.61 1015.66 1015.66 1015.60 1015.44 1015.18 1014.84 1014.43 1013.99
1008.67 1009.37 1010.11 1010.81 1011.42 1011.91 1012.31 1012.62 1012.89 1013.13 1013.38 1013.62 1013.84 1014.03 1014.17 1014.25 1014.26 1014.22 1014.15 1014.09 1014.07 1014.08 1014.16 1014.28 1014.43 1014.59 1014.74 1014.87 1014.98 1015.06 1015.14 1015.23 1015.33 1015.44 1015.55 1015.64 1015.68 1015.64 1015.50 1015.27 1014.93 1014.54 1014.11
1008.19 1008.83 1009.53 1010.21 1010.84 1011.38 1011.83 1012.20 1012.52 1012.82 1013.10 1013.36 1013.61 1013.81 1013.97 1014.06 1014.10 1014.08 1014.04 1014.01 1013.99 1014.02 1014.08 1014.19 1014.32 1014.46 1014.59 1014.71 1014.80 1014.89 1014.99 1015.10 1015.23 1015.37 1015.52 1015.64 1015.70 1015.69 1015.57 1015.36 1015.05 1014.68 1014.27
1008.03 1008.56 1009.16 1009.78 1010.37 1010.89 1011.35 1011.75 1012.09 1012.41 1012.70 1012.98 1013.24 1013.45 1013.62 1013.74 1013.80 1013.82 1013.81 1013.81 1013.83 1013.87 1013.95 1014.06 1014.19 1014.32 1014.44 1014.55 1014.65 1014.75 1014.87 1015.00 1015.16 1015.33 1015.51 1015.65 1015.74 1015.75 1015.66 1015.47 1015.20 1014.86 1014.50
1008.25 1008.62 1009.09 1009.59 1010.08 1010.54 1010.95 1011.32 1011.65 1011.95 1012.24 1012.51 1012.75 1012.96 1013.13 1013.26 1013.34 1013.40 1013.44 1013.49 1013.55 1013.63 1013.75 1013.88 1014.02 1014.16 1014.30 1014.42 1014.53 1014.65 1014.79 1014.95 1015.13 1015.33 1015.53 1015.70 1015.81 1015.85 1015.79 1015.64 1015.41 1015.12 1014.80
1008.80 1009.01 1009.31 1009.66 1010.03 1010.38 1010.70 1011.00 1011.27 1011.52 1011.76 1011.98 1012.19 1012.37 1012.52 1012.65 1012.76 1012.85 1012.94 1013.04 1013.17 1013.31 1013.48 1013.66 1013.84 1014.02 1014.18 1014.33 1014.47 1014.62 1014.78 1014.96 1015.17 1015.39 1015.60 1015.79 1015.92 1015.99 1015.96 1015.85 1015.67 1015.44 1015.18
1009.59 1009.66 1009.80 1009.99 1010.20 1010.42 1010.63 1010.82 1011.00 1011.16 1011.32 1011.47 1011.61 1011.74 1011.86 1011.97 1012.09 1012.21 1012.35 1012.52 1012.72 1012.94 1013.18 1013.43 1013.67 1013.90 1014.11 1014.30 1014.48 1014.66 1014.85 1015.06 1015.28 1015.52 1015.74 1015.94 1016.09 1016.18 1016.19 1016.12 1015.99 1015.81 1015.60
1010.52 1010.46 1010.46 1010.50 1010.56 1010.64 1010.71 1010.78 1010.84 1010.90 1010.95 1011.00 1011.06 1011.12 1011.19 1011.28 1011.40 1011.55 1011.73 1011.96 1012.24 1012.54 1012.87 1013.20 1013.52 1013.82 1014.09 1014.34 1014.57 1014.79 1015.00 1015.23 1015.47 1015.71 1015.94 1016.15 1016.31 1016.41 1016.45 1016.42 1016.34 1016.21 1016.05
1011.44 1011.29 1011.17 1011.08 1011.01 1010.95 1010.90 1010.84 1010.78 1010.72 1010.66 1010.61 1010.58 1010.56 1010.57 1010.63 1010.73 1010.90 1011.13 1011.42 1011.76 1012.15 1012.56 1012.98 1013.39 1013.76 1014.11 1014.42 1014.70 1014.95 1015.20 1015.45 1015.70 1015.95 1016.18 1016.39 1016.56 1016.68 1016.74 1016.74 1016.68 1016.59 1016.47
1012.24 1012.02 1011.82 1011.63 1011.45 1011.28 1011.11 1010.93 1010.76 1010.59 1010.42 1010.27 1010.15 1010.06 1010.01 1010.04 1010.13 1010.31 1010.57 1010.91 1011.31 1011.77 1012.26 1012.76 1013.25 1013.70 1014.11 1014.48 1014.82 1015.12 1015.40 1015.67 1015.94 1016.19 1016.43 1016.64 1016.81 1016.94 1017.01 1017.03 1017.00 1016.93 1016.83
1012.82 1012.56 1012.31 1012.04 1011.78 1011.51 1011.24 1010.97 1010.70 1010.43 1010.17 1009.94 1009.74 1009.60 1009.51 1009.51 1009.59 1009.78 1010.06 1010.43 1010.89 1011.40 1011.95 1012.51 1013.06 1013.58 1014.06 1014.49 1014.87 1015.22 1015.54 1015.84 1016.12 1016.38 1016.63 1016.85 1017.03 1017.16 1017.24 1017.27 1017.24 1017.18 1017.07
1013.15 1012.87 1012.57 1012.25 1011.92 1011.58 1011.23 1010.88 1010.52 1010.18 1009.86 1009.57 1009.33 1009.15 1009.04 1009.02 1009.10 1009.29 1009.59 1009.98 1010.47 1011.01 1011.60 1012.20 1012.80 1013.36 1013.89 1014.37 1014.80 1015.20 1015.55 1015.89 1016.19 1016.48 1016.74 1016.97 1017.15 1017.29 1017.38 1017.40 1017.38 1017.30 1017.19
1013.27 1012.96 1012.62 1012.25 1011.86 1011.45 1011.03 1010.61 1010.20 1009.81 1009.44 1009.12 1008.86 1008.67 1008.56 1008.55 1008.64 1008.84 1009.15 1009.55 1010.04 1010.60 1011.20 1011.82 1012.44 1013.04 1013.60 1014.12 1014.59 1015.03 1015.43 1015.79 1016.13 1016.44 1016.72 1016.96 1017.16 1017.31 1017.39 1017.42 1017.38 1017.29 1017.14
1013.23 1012.90 1012.51 1012.09 1011.64 1011.16 1010.67 1010.19 1009.73 1009.31 1008.92 1008.60 1008.34 1008.16 1008.07 1008.08 1008.19 1008.41 1008.72 1009.13 1009.62 1010.17 1010.77 1011.39 1012.02 1012.63 1013.21 1013.75 1014.26 1014.73 1015.16 1015.56 1015.93 1016.27 1016.56 1016.82 1017.03 1017.18 1017.27 1017.28 1017.23 1017.11 1016.94
1013.15 1012.77 1012.33 1011.85 1011.32 1010.78 1010.23 1009.69 1009.19 1008.74 1008.35 1008.04 1007.80 1007.66 1007.60 1007.65 1007.79 1008.02 1008.34 1008.75 1009.23 1009.77 1010.35 1010.96 1011.58 1012.19 1012.78 1013.34 1013.87 1014.36 1014.82 1015.24 1015.63 1015.97 1016.28 1016.55 1016.76 1016.91 1016.99 1016.99 1016.93 1016.79 1016.58
1013.11 1012.68 1012.18 1011.62 1011.03 1010.41 1009.79 1009.21 1008.67 1008.21 1007.82 1007.52 1007.32 1007.21 1007.20 1007.28 1007.46 1007.71 1008.04 1008.45 1008.92 1009.44 1010.01 1010.60 1011.20 1011.81 1012.40 1012.96 1013.50 1014.00 1014.47 1014.89 1015.27 1015.61 1015.91 1016.16 1016.36 1016.49 1016.56 1016.55 1016.47 1016.31 1016.08
1013.18 1012.70 1012.14 1011.51 1010.84 1010.16 1009.49 1008.86 1008.29 1007.81 1007.43 1007.15 1006.98 1006.91 1006.94 1007.06 1007.27 1007.54 1007.89 1008.30 1008.76 1009.27 1009.81 1010.39 1010.98 1011.57 1012.15 1012.71 1013.24 1013.73 1014.17 1014.57 1014.93 1015.23 1015.49 1015.70 1015.86 1015.96 1016.00 1015.97 1015.88 1015.71 1015.47
1013.38 1012.86 1012.25 1011.57 1010.85 1010.12 1009.40 1008.73 1008.15 1007.66 1007.28 1007.02 1006.88 1006.84 1006.90 1007.05 1007.28 1007.57 1007.92 1008.33 1008.79 1009.29 1009.82 1010.38 1010.96 1011.54 1012.10 1012.64 1013.14 1013.59 1014.00 1014.34 1014.63 1014.87 1015.06 1015.20 1015.30 1015.35 1015.35 1015.30 1015.19 1015.02 1014.79
1013.69 1013.15 1012.52 1011.82 1011.07 1010.31 1009.58 1008.90 1008.30 1007.81 1007.44 1007.19 1007.06 1007.04 1007.12 1007.28 1007.52 1007.82 1008.18 1008.58 1009.03 1009.52 1010.05 1010.60 1011.15 1011.71 1012.25 1012.75 1013.21 1013.61 1013.94 1014.20 1014.40 1014.54 1014.63 1014.68 1014.70 1014.68 1014.63 1014.55 1014.43 1014.27 1014.06
1014.06 1013.52 1012.90 1012.21 1011.47 1010.73 1010.00 1009.34 1008.75 1008.27 1007.91 1007.67 1007.54 1007.52 1007.60 1007.76 1007.99 1008.29 1008.63 1009.03 1009.47 1009.95 1010.46 1010.99 1011.52 1012.05 1012.55 1013.01 1013.40 1013.72 1013.96 1014.12 1014.21 1014.23 1014.21 1014.15 1014.07 1013.97 1013.87 1013.76 1013.64 1013.50 1013.34
Thickness
5805 5803 5800 5797 5793 5788 5785 5782 5779 5777 5775 5773 5772 5769 5768 5768 5767 5767 5764 5762 5760 5759 5758 5759 5756 5756 5755 5753 5754 5752 5750 5750 5751 5748 5747 5750 5752 5751 5750 5750 5750 5749 5747
5806 5803 5801 5798 5795 5790 5787 5784 5781 5780 5777 5775 5773 5771 5770 5770 5769 5767 5764 5762 5760 5758 5759 5756 5756 5755 5753 5751 5751 5749 5748 5749 5750 5746 5743 5741 5744 5747 5750 5749 5747 5747 5746
5809 5806 5803 5801 5798 5794 5791 5789 5784 5782 5779 5778 5776 5773 5770 5769 5768 5765 5764 5762 5760 5758 5757 5756 5755 5754 5754 5751 5750 5748 5745 5745 5747 5748 5743 5739 5736 5741 5745 5745 5745 5744 5743
5816 5811 5808 5804 5801 5799 5797 5792 5787 5783 5780 5778 5777 5773 5769 5767 5767 5766 5765 5763 5761 5759 5757 5756 5754 5753 5754 5751 5751 5750 5748 5745 5743 5745 5744 5743 5742 5736 5735 5740 5742 5741 5740
5821 5816 5813 5809 5807 5804 5800 5795 5789 5785 5782 5780 5777 5773 5772 5771 5770 5768 5764 5762 5762 5759 5758 5756 5754 5752 5752 5750 5749 5748 5747 5746 5744 5743 5742 5740 5739 5739 5734 5730 5733 5736 5738
5825 5820 5818 5813 5809 5806 5802 5797 5790 5785 5783 5780 5778 5774 5771 5769 5767 5764 5763 5763 5763 5761 5758 5756 5753 5751 5750 5748 5747 5746 5745 5745 5743 5742 5742 5740 5737 5735 5734 5730 5729 5728 5732
5827 5822 5817 5812 5808 5805 5802 5798 5792 5786 5784 5781 5778 5775 5771 5768 5765 5765 5764 5762 5762 5760 5757 5756 5752 5750 5748 5747 5746 5744 5744 5743 5740 5739 5739 5739 5739 5738 5736 5732 5729 5728 5729
5829 5824 5820 5815 5809 5805 5801 5797 5792 5787 5784 5781 5777 5775 5772 5770 5769 5765 5764 5762 5761 5760 5758 5754 5751 5749 5747 5747 5744 5744 5742 5741 5739 5739 5737 5737 5738 5738 5735 5732 5727 5723 5724
5828 5825 5821 5816 5811 5806 5801 5798 5792 5787 5785 5782 5778 5774 5771 5769 5767 5764 5763 5762 5759 5758 5756 5753 5750 5748 5745 5744 5743 5742 5740 5738 5738 5738 5736 5735 5736 5734 5733 5731 5727 5721 5717
5826 5824 5822 5817 5813 5807 5802 5798 5793 5788 5785 5782 5778 5775 5771 5768 5765 5763 5760 5758 5756 5754 5752 5751 5749 5746 5744 5742 5740 5739 5738 5735 5734 5733 5731 5730 5732 5731 5729 5728 5725 5723 5718
5824 5822 5820 5817 5813 5807 5802 5796 5792 5788 5784 5781 5777 5773 5769 5766 5763 5760 5757 5755 5753 5751 5749 5747 5745 5743 5741 5739 5737 5737 5735 5733 5731 5730 5729 5726 5726 5725 5724 5723 5721 5718 5715
5823 5821 5818 5814 5810 5805 5800 5795 5791 5787 5784 5781 5776 5771 5768 5764 5760 5757 5754 5752 5749 5748 5746 5744 5741 5739 5738 5736 5734 5733 5732 5730 5728 5726 5724 5723 5722 5719 5718 5716 5715 5713 5710
5817 5816 5813 5809 5805 5802 5798 5794 5790 5786 5783 5779 5774 5770 5766 5762 5758 5754 5751 5749 5747 5744 5742 5740 5738 5736 5734 5732 5731 5729 5728 5726 5724 5722 5720 5718 5716 5713 5712 5711 5710 5708 5706
5810 5809 5806 5803 5801 5798 5794 5790 5787 5785 5782 5777 5772 5767 5763 5760 5755 5751 5748 5745 5743 5741 5738 5736 5734 5732 5730 5729 5727 5725 5723 5721 5719 5717 5715 5713 5710 5708 5706 5705 5703 5701 5699
5804 5802 5800 5798 5795 5793 5791 5787 5784 5781 5778 5773 5768 5764 5761 5757 5752 5747 5743 5740 5738 5737 5734 5731 5729 5728 5727 5725 5722 5720 5718 5715 5713 5711 5709 5706 5702 5699 5699 5699 5697 5694 5692
5798 5797 5795 5794 5791 5789 5787 5784 5780 5777 5773 5768 5764 5761 5757 5753 5748 5743 5739 5736 5734 5731 5729 5727 5725 5723 5722 5716 5713 5712 5712 5710 5708 5705 5702 5700 5697 5693 5690 5688 5686 5685 5684
5793 5792 5791 5789 5787 5785 5784 5780 5777 5774 5769 5764 5760 5757 5753 5749 5745 5742 5737 5733 5729 5727 5724 5722 5720 5717 5712 5708 5706 5704 5705 5704 5701 5699 5697 5696 5693 5689 5687 5682 5679 5677 5674
5789 5788 5787 5786 5785 5783 5781 5777 5774 5769 5764 5760 5756 5753 5749 5745 5741 5737 5732 5729 5726 5722 5719 5717 5714 5711 5707 5702 5700 5698 5699 5698 5696 5694 5691 5688 5686 5684 5681 5679 5676 5673 5670
5786 5784 5784 5783 5780 5778 5775 5771 5768 5765 5760 5756 5752 5749 5745 5741 5737 5732 5728 5725 5722 5718 5715 5712 5709 5707 5703 5697 5694 5692 5695 5692 5690 5688 5685 5683 5680 5673 5671 5672 5669 5666 5663
5780 5778 5779 5777 5773 5771 5769 5764 5761 5759 5755 5752 5749 5745 5741 5736 5732 5728 5724 5721 5717 5713 5710 5707 5705 5703 5700 5693 5689 5686 5691 5688 5686 5682 5679 5674 5672 5666 5664 5665 5663 5660 5658
5772 5772 5770 5768 5766 5764 5762 5757 5754 5751 5750 5747 5743 5738 5735 5731 5727 5723 5719 5716 5713 5709 5706 5702 5700 5698 5695 5689 5685 5681 5683 5683 5680 5678 5675 5670 5663 5660 5657 5656 5657 5653 5651
5763 5762 5760 5758 5758 5756 5753 5749 5746 5745 5742 5739 5735 5732 5729 5728 5725 5719 5715 5711 5707 5703 5701 5698 5695 5694 5689 5684 5679 5675 5673 5672 5672 5670 5669 5664 5655 5652 5650 5649 5646 5644 5643
5754 5753 5751 5749 5749 5748 5746 5742 5740 5738 5734 5730 5727 5725 5723 5720 5718 5714 5709 5706 5703 5701 5698 5695 5693 5691 5687 5681 5674 5669 5666 5664 5664 5664 5657 5653 5648 5645 5644 5641 5639 5638 5640
5745 5744 5743 5741 5739 5739 5738 5736 5734 5731 5727 5722 5720 5718 5715 5713 5710 5707 5704 5702 5700 5697 5695 5692 5690 5687 5682 5679 5674 5669 5663 5657 5656 5655 5650 5644 5641 5639 5638 5637 5636 5636 5636
5736 5735 5733 5732 5731 5730 5729 5729 5726 5723 5719 5716 5713 5712 5710 5708 5703 5700 5697 5696 5694 5692 5687 5686 5684 5680 5677 5673 5667 5664 5661 5658 5654 5648 5646 5644 5642 5639 5638 5637 5635 5633 5631
5727 5726 5725 5724 5723 5723 5721 5722 5719 5716 5712 5709 5707 5706 5704 5701 5698 5694 5690 5685 5684 5680 5676 5674 5672 5672 5668 5663 5658 5653 5650 5646 5641 5639 5641 5640 5639 5637 5635 5633 5630 5628 5625